Regional Weather Roundup
Issued by NWS

Home | Current Version | Previous Version | Graphics & Text | Print | Product List | Glossary On
Versions: 1 2 3 4 5 6 7 8 9 10 11 12 13 14 15 16 17 18 19 20 21 22 23 24 25 26 27 28 29 30 31 32 33 34 35 36 37 38 39 40 41 42 43 44 45 46 47 48 49 50
000
ASUS45 KBOU 251307
RWRCO

WEATHER ROUNDUP FOR COLORADO
NATIONAL WEATHER SERVICE DENVER/BOULDER CO
600 AM MST THU DEC 25 2014

NOTE: "FAIR" INDICATES FEW OR NO CLOUDS BELOW 12000 FEET WITH NO
SIGNIFICANT WEATHER AND/OR OBSTRUCTIONS TO VISIBILITY.

COZ001>005-013-030-031-251400-
...NORTHWEST COLORADO...

CITY           SKY/WX    TMP DP  RH WIND       PRES   REMARKS
CRAIG          CLOUDY    28  25  88 SE6       29.50S WCI  22
HAYDEN         CLOUDY    25  23  93 E8        29.49S VSB 1/2 WCI  16
MEEKER         CLOUDY    31  23  72 CALM      29.49F
MOUNT WERNER   NOT AVBL
STEAMBOAT SPGS CLOUDY    21  19  93 SE3       29.49S
WALDEN         CLOUDY    27  21  80 SE6       29.47R WCI  20
$$

COZ006>008-011-251400-
...WEST CENTRAL VALLEYS...

CITY           SKY/WX    TMP DP  RH WIND       PRES   REMARKS
GRAND JUNCTION CLOUDY    28  22  78 CALM      29.52S
MONTROSE       MOCLDY    30  18  60 NW12      29.54R WCI  20
EAGLE          CLOUDY    18  14  86 CALM      29.57F
RIFLE          FLURRIES  25  20  81 CALM      29.56F
DELTA          CLOUDY    37  25  64 NE6       29.54F
NUCLA          CLOUDY    36  18  48 CALM      29.57S
$$

COZ017>023-064>068-251400-
...SOUTHWEST COLORADO...

CITY           SKY/WX    TMP DP  RH WIND       PRES   REMARKS
DURANGO        CLOUDY    25  16  68 CALM      29.65F
CORTEZ         CLOUDY    37  16  42 S9        29.60S
PAGOSA SPRINGS CLOUDY    23  13  65 CALM      29.66F
TELLURIDE      CLOUDY    29  18  64 CALM      29.58F
WOLF CREEK PAS SNOW       9   9 100 MISG      29.60F VSB 1/2
$$

COZ009-010-012-014-032>034-037-058>063-251400-
...CENTRAL COLORADO...

CITY           SKY/WX    TMP DP  RH WIND       PRES   REMARKS
ASPEN          LGT SNOW  22  19  89 SW3       29.50S FOG
BUENA VISTA    MOCLDY    15   8  76 W3        29.55S
COPPER MTN     LGT SNOW  23  18  80 SE18G24   29.51S VSB 1   WCI   9
BERTHOUD PASS  LGT SNOW  14   9  79 MISG      29.53R
COTTONWOOD PAS CLOUDY    21  10  63 N3        29.52F
GUNNISON       CLOUDY     7  -2  66 CALM      29.63F
KREMMLING      LGT SNOW  10   5  79 CALM      29.54S
LEADVILLE      CLOUDY    14  12  92 CALM      29.51R
MONARCH PASS   CLOUDY    12  10  92 MISG      29.63S
SALIDA         MOCLDY    29   9  44 SW10G23   29.61F WCI  19
SUNLIGHT       LGT SNOW N/A N/A N/A MISG      29.50S VSB 3/4
WILKERSON PASS PTCLDY    14  10  85 SW12G20   29.53R WCI   0
$$

COZ069>075-251400-
...SAN LUIS VALLEY/SANGRE DE CRISTO MOUNTAINS...

CITY           SKY/WX    TMP DP  RH WIND       PRES   REMARKS
ALAMOSA        MOCLDY     3  -1  83 N6        29.63F WCI  -8
LA VETA PASS   NOT AVBL
SAGUACHE       MOCLDY     1  -4  78 NW7       29.63F WCI -11
$$

COZ035-036-038>040-251400-
...NORTHERN COLORADO FRONT RANGE...

CITY           SKY/WX    TMP DP  RH WIND       PRES   REMARKS
DENVER INTL AP PTCLDY    37  17  44 S5        29.37R
DMNS CITY PARK   N/A     34  16  48 NW3G9     29.37R
AURORA         PTCLDY    39  18  42 S15       29.37S
FRONT RANGE AP NOT AVBL
ERIE MUNI ARPT   N/A     22  16  77 CALM      29.38R
BOULDER MUN AP CLEAR     28  19  69 NW5       29.38R WCI  23
CENTENNIAL     PTCLDY    39  19  44 SW15      29.38R
BROOMFIELD     PTCLDY    37  16  41 CALM      29.37R
FORT COLLINS   PTCLDY    25  16  68 N10       29.40R WCI  15
LONGMONT       PTCLDY    24  18  76 E7        29.41R WCI  16
$$

COZ041-046-047-076>085-087-088-251400-
...PIKES PEAK/PALMER DIVIDE AND SOUTHERN FOOTHILLS...

CITY           SKY/WX    TMP DP  RH WIND       PRES   REMARKS
COLO. SPRINGS  PTCLDY    27  15  61 N10       29.42S WCI  17
A. F. ACADEMY  PTCLDY    29  13  52 NE5       29.42R WCI  23
ELLICOTT       NOT AVBL
FALCON         CLEAR     31  12  45 CALM      29.44S
FORT CARSON    PTCLDY    34  13  42 N5        29.40S WCI  30
LIMON          PTCLDY    21  18  88 N5        29.41S WCI  15
MONUMENT HILL  CLEAR     32  18  55 S5        29.42S WCI  27
TRINIDAD       PTCLDY    31  16  54 W12       29.51R WCI  22
$$

COZ042>045-048>051-090-091-251400-
...NORTHEAST COLORADO...

CITY           SKY/WX    TMP DP  RH WIND       PRES   REMARKS
GREELEY ARPT   PTCLDY    21   9  58 CALM      29.39R
AKRON          CLOUDY    35  23  61 N8        29.39S WCI  29
BURLINGTON     CLOUDY    34  24  67 MISG      29.40R
WRAY           MOCLDY    26  23  89 NW7       29.41R WCI  18
STERLING       CLOUDY    30  27  86 CALM      29.42R
HOLYOKE        MOCLDY    34  28  80 NW5       29.40R WCI  30
FORT MORGAN    CLOUDY    29  20  68 N9        29.39F WCI  20
$$

COZ086-089-092>099-251400-
...SOUTHEAST COLORADO...

CITY           SKY/WX    TMP DP  RH WIND       PRES   REMARKS
PUEBLO         CLEAR     31  16  54 SE6       29.44S WCI  25
LA JUNTA       PTCLDY    45  17  32 SW23G31   29.43F
LAMAR          MOCLDY    31  23  72 SW5       29.42S WCI  26
SPRINGFIELD      N/A     39  23  52 SW10      29.46R
$$


USA.gov is the U.S. government's official web portal to all federal, state and local government web resources and services.